STARLINK-30467, 57895

Orbit data source: Space-Track

STARLINK-30467, 57895 is a payload satellite owned by SpaceX/Seattle (US) in LEO that was launched on Wed, 20 Sep 2023 UTC via an FALCON 9 launch vehicle from the Air Force Eastern Test Range (AFETR). Payload-class satellites include a variety of spacecraft equipped with specific instruments for various scientific and technological missions. These include communications satellites like Starlink; space stations such as the ISS; scientific satellites like the Hubble; Earth observation satellites from companies like Planet Labs, Umbra, and HawkEye 360; GPS; miniature CubeSats for education and research; and military/defense satellites.

Loading next visibility...
Identifier
57895, 2023-146E
Orbit
LEO
Country
Flag of USUS
Related business
Manufacturer
SpaceX/Seattle
Mission
Operational Commercial Communications
Bus & Motor
STARLINK V2M, Unknown motor
Mass
730 kg wet, ~700 kg dry
Launch date (UTC)
2023-09-20 (3 years ago)
Launch vehicle
FALCON 9
Launch site
Air Force Eastern Test Range (AFETR)
Object type
Payload
Rocket body
Debris
Shape & HBR
Box + 2 Pan, 17.7 m
Radar Cross Section
33.884 m², Large (>1 m²)

Expand to show TLE details & history
Last TLE update: 2 days ago

TLE from 2 days ago
0 STARLINK-30467
1 57895U 23146E   26170.98472886  .00000088  00000-0  12734-4 0  9995
2 57895  43.0047  96.2696 0001201 277.8591  82.2125 15.27601484152696
Epoch: 2026-06-19T23:38Z
TLE epoch observation values (Epoch: 2026-06-19T23:38:00.573Z)
Latitude
0.00002°
Longitude
-166.43862°
Altitude
482.649 km
Speed
7.626 km/s
True Right ascension
06h 25m 04s
True Declination
0° 00' 00"
Sunlit
Object was in daylight at epoch
Visualization orbit readout
Latitude
Unknown
Longitude
Unknown
Altitude
Unknown
Speed
Unknown
Apparent Right ascension
Unknown
Apparent Declination
Unknown
Sunlit
N/A
Visualization observer readout
Local Sidereal Time
21:53:56
Azimuth
Unknown
Elevation
Unknown
Doppler factor
Unknown
Orbital elements
Apogee altitude
485.753 km
Perigee altitude
484.105 km
Semi-major axis
6,863.066 km
Eccentricity
0.00012
Inclination
43.0047°
RAAN
96.2696°
Arg. of periapsis
277.8591°
True anomaly
82.22614°
Mean anomaly
82.2125°
Eccentric anomaly
82.21932°
Mean motion
3.81738 °/min
Orbital period
94.31 mins
BSTAR
0.000012734
Loading maneuver chart data...
Computing Atmospheric mass density...
Loading historical data...
Loading historical data...
Loading historical data...
Loading historical data...
Loading historical data...
Loading historical data...
Loading historical data...

Documentation

Showing up to 5 results
|